{"data":{"norad_id":59708,"intl_designator":"2024-088A","name":"STARLINK-11107 [DTC]","alt_names":[],"object_type":"PAYLOAD","status":"ACTIVE","operator":null,"country":"US","launch_date":"2024-05-10","launch_site_code":"AFWTR","launch_vehicle":null,"mission":null,"orbit_class":"UNKNOWN","rcs_meters":null,"size_class":null,"mass_kg":null,"dimensions":null,"purposes":["comms"],"wikipedia_slug":null,"has_3d_model":false,"image_url":null,"decayed_at":null,"tle_current":{"epoch":"2026-05-24T21:12:06.969600Z","epoch_age_seconds":88352,"freshness":"FRESH","line1":"1 59708U 24088A   26144.88341400  .00001880  00000+0  20368-4 0  9995","line2":"2 59708  53.1583 310.3572 0001062  91.7941 268.3199 15.69711221118224","mean_motion":15.69711221,"eccentricity":0.0001062,"inclination_deg":53.1583,"raan_deg":310.3572,"arg_perigee_deg":91.7941,"mean_anomaly_deg":268.3199,"bstar":2.0368e-5,"rev_number":11822,"period_min":91.736618859272,"perigee_km":359.00769562819,"apogee_km":360.43881714665,"semimajor_km":6737.8602563874,"source":"CELESTRAK","updated_at":"2026-05-25T13:38:19.045151Z"}}}